EW9733 Weather Reports


time (UTC)temp
F
wind
direction
speed
knots
gust
knots
rain 1hr
in
rain 24hr
in
rain mn
in
humidity
%
barometer
mb
20260509224525 55 207 1.7 6.1 0.14 0.18 0.18 91 1011.9
20260509223023 55 190 0.9 6.1 0.09 0.12 0.12 91 1011.7
20260509221523 55 207 1.7 7.0 0.07 0.09 0.09 90 1011.5
20260509220023 56 164 0.9 8.7 0.05 0.06 0.06 90 1011.5
20260509214521 56 192 1.7 8.7 0.03 0.04 0.04 89 1011.4
20260509213027 56 163 1.7 8.7 0.02 0.03 0.03 87 1011.3
20260509211520 58 200 4.3 9.6 0.01 0.02 0.02 80 1011.1
20260509210019 59 184 2.6 9.6 0.00 0.01 0.01 77 1010.6
20260509204518 60 194 3.5 7.8 0.00 0.01 0.01 77 1011.1
20260509203017 60 134 2.6 8.7 0.00 0.01 0.01 76 1010.9
20260509201517 61 248 0.0 4.3 0.00 0.01 0.01 69 1010.8
20260509200017 61 158 0.9 7.0 0.00 0.01 0.01 69 1010.8
20260509194516 62 161 3.5 13.9 0.00 0.01 0.01 66 1010.9
20260509193025 62 146 1.7 7.8 0.00 0.01 0.01 69 1010.8
20260509191512 62 213 0.0 8.7 0.00 0.01 0.01 69 1010.7
20260509190012 62 177 1.7 4.3 0.00 0.01 0.01 70 1010.8
20260509184528 62 268 0.9 7.0 0.00 0.01 0.01 70 1011.1
20260509183008 61 187 0.9 6.1 0.00 0.01 0.01 73 1011.1
20260509181508 60 153 1.7 8.7 0.00 0.01 0.01 78 1010.9
20260509180004 59 159 0.9 4.3 0.00 0.01 0.01 77 1011.6
20260509174503 60 169 0.9 7.8 0.00 0.01 0.01 72 1011.9
20260509173002 61 164 2.6 8.7 0.00 0.01 0.01 68 1012.0
20260509171500 61 198 2.6 6.1 0.00 0.01 0.01 67 1011.8
20260509170107 61 155 0.0 4.3 0.00 0.01 0.01 70 1011.9
20260509164559 60 249 0.0 6.1 0.00 0.01 0.01 70 1011.9
20260509163057 60 167 0.0 6.1 0.00 0.01 0.01 71 1011.9
20260509161552 59 181 1.7 7.0 0.00 0.01 0.01 71 1012.2
20260509160051 59 183 0.9 5.2 0.00 0.01 0.01 71 1012.3
20260509154549 59 180 0.0 7.0 0.00 0.01 0.01 72 1012.6
20260509153055 58 144 0.9 6.1 0.00 0.01 0.01 73 1012.8
20260509151540 56 158 1.7 6.1 0.00 0.01 0.01 75 1012.8
20260509150037 55 178 0.0 7.8 0.00 0.01 0.01 75 1012.7
20260509144534 54 131 0.9 4.3 0.00 0.01 0.01 76 1013.0
20260509143031 53 159 1.7 4.3 0.00 0.01 0.01 79 1013.3
20260509141527 52 139 0.0 3.5 0.00 0.01 0.01 83 1013.4
20260509140023 51 150 1.7 5.2 0.00 0.01 0.01 88 1013.7
20260509134519 50 195 0.9 4.3 0.00 0.01 0.01 91 1013.9
20260509133015 48 150 0.0 0.9 0.00 0.01 0.01 92 1013.9
20260509131513 46 155 0.0 1.7 0.00 0.01 0.01 91 1014.0
20260509130016 45 157 0.0 0.0 0.00 0.01 0.01 91 1013.9
20260509124504 45 157 0.0 0.0 0.00 0.01 0.01 90 1013.6
20260509123002 45 157 0.0 0.9 0.01 0.01 0.01 90 1013.9
20260509121501 44 157 0.0 0.0 0.01 0.01 0.01 90 1014.2
20260509120100 44 157 0.0 2.6 0.01 0.01 0.01 90 1014.5
20260509114604 44 158 0.0 4.3 0.01 0.01 0.01 90 1014.7
20260509113059 43 153 0.0 3.5 0.00 0.00 0.00 90 1014.7
20260509111555 42 167 0.0 4.3 0.00 0.00 0.00 91 1014.8
20260509110053 41 144 0.0 0.9 0.00 0.00 0.00 90 1014.6
20260509104553 40 144 0.0 0.0 0.00 0.00 0.00 90 1014.3
20260509103059 39 144 0.0 0.0 0.00 0.00 0.00 90 1014.0
20260509101559 38 144 0.0 0.0 0.00 0.00 0.00 89 1013.6
20260509100045 38 144 0.0 0.0 0.00 0.00 0.00 89 1013.5
20260509094551 37 144 0.0 0.0 0.00 0.00 0.00 88 1013.3
20260509093043 37 144 0.0 0.0 0.00 0.00 0.00 87 1013.3
20260509091544 37 144 0.0 0.0 0.00 0.00 0.00 86 1013.4
20260509090047 37 144 0.0 0.0 0.00 0.00 0.00 85 1013.2
20260509084544 38 144 0.0 0.0 0.00 0.00 0.00 85 1013.0
20260509083050 38 144 0.0 0.0 0.00 0.00 0.00 85 1013.2
20260509081535 38 144 0.0 0.0 0.00 0.00 0.00 84 1013.4
20260509080034 39 144 0.0 0.0 0.00 0.00 0.00 84 1013.5
20260509074532 39 144 0.0 0.0 0.00 0.00 0.00 84 1013.3
20260509073033 39 144 0.0 0.0 0.00 0.00 0.00 85 1013.4
20260509071535 39 144 0.0 0.0 0.00 0.00 0.00 84 1013.4
20260509070028 39 144 0.0 0.9 0.00 0.00 0.00 84 1013.3
20260509064527 39 136 0.9 3.5 0.00 0.00 0.00 84 1013.3
20260509063024 39 30 0.0 0.0 0.00 0.00 0.00 83 1012.9
20260509061523 40 30 0.0 0.0 0.00 0.00 0.00 83 1012.9
20260509060020 40 30 0.0 0.0 0.00 0.00 0.00 81 1012.9
20260509054519 40 30 0.0 0.9 0.00 0.00 0.00 80 1012.9
20260509053018 40 30 0.0 0.0 0.00 0.00 0.00 79 1013.0
20260509051515 41 29 0.0 0.0 0.00 0.00 0.00 78 1012.9
20260509050018 41 30 0.0 0.0 0.00 0.00 0.00 77 1012.9
20260509044510 42 29 0.0 0.0 0.00 0.00 0.00 76 1012.9
20260509043009 42 29 0.0 0.0 0.00 0.00 0.00 75 1012.7
20260509041505 43 29 0.0 0.0 0.00 0.00 0.00 75 1012.5
20260509040003 43 29 0.0 0.0 0.00 0.00 0.00 73 1012.4
20260509034502 44 29 0.0 0.0 0.00 0.00 0.00 73 1012.5
20260509033101 44 29 0.0 0.0 0.00 0.00 0.00 73 1012.5
20260509033001 44 29 0.0 0.0 0.00 0.00 0.00 73 1012.5
20260509031603 45 29 0.0 0.0 0.00 0.00 0.00 72 1012.4
20260509030114 45 29 0.0 0.0 0.00 0.00 0.00 72 1012.4
20260509024601 46 29 0.0 0.0 0.00 0.00 0.00 69 1012.2
20260509023058 46 29 0.0 0.0 0.00 0.00 0.00 68 1012.1
20260509021554 47 29 0.0 0.0 0.00 0.00 0.00 67 1012.0
20260509014549 47 29 0.0 1.7 0.00 0.00 0.00 66 1011.4
20260509013046 47 21 0.0 0.0 0.00 0.00 0.00 65 1011.2
20260509011545 48 21 0.0 0.0 0.00 0.00 0.00 64 1010.9
20260509010043 48 21 0.0 0.0 0.00 0.00 0.00 62 1010.6
20260509004552 49 21 0.0 0.0 0.00 0.00 0.00 60 1010.4
20260509003048 50 343 0.0 0.0 0.00 0.00 0.00 58 1010.0
20260509001535 51 343 0.0 0.0 0.00 0.00 0.00 55 1009.5
20260509000033 53 323 0.0 0.0 0.00 0.00 0.00 52 1009.3
20260508234531 54 277 0.0 0.9 0.00 0.00 0.00 49 1009.0
20260508233031 55 332 0.0 2.6 0.00 0.00 0.00 47 1008.8
20260508231531 56 271 0.0 4.3 0.00 0.00 0.00 48 1008.7
20260508230031 57 223 0.0 5.2 0.00 0.00 0.00 45 1008.6